486  
ASUS42 KTBW 300816  
RWRFL  
FLORIDA REGIONAL WEATHER ROUNDUP  
NATIONAL WEATHER SERVICE TAMPA BAY RUSKIN FL  
400 AM EDT THU MAR 30 2017  
 
NOTE: "FAIR" INDICATES FEW OR NO CLOUDS BELOW 12,000 FEET WITH NO  
SIGNIFICANT WEATHER AND/OR S TO VISIBILITY
.  
 
FLZ001>010-012>015-112-114-115-300900-  
PANHANDLE FLORIDA  
 
CITY SKY/WX TMP DP RH WIND PRES REMARKS
 
PENSACOLA PTCLDY 71 66 84 S8 29.91F  
PENSACOLA NAS CLEAR 70 66 87 S9 29.91F  
MILTON NAS LGT RAIN 63 63 100 SE3 29.93 VSB 3/4  
CRESTVIEW MOCLDY 56 55 97 CALM 29.94F FOG  
DUKE FIELD FAIR 59 58 97 CALM 29.92F  
VALPARAISO CLEAR 69 66 88 S8 29.92F  
MARY ESTHER CLEAR 69 65 90 S8 29.91F  
PANAMA CITY FAIR 57 54 89 CALM 29.92F  
TYNDALL AFB CLEAR 61 60 97 SE3 29.93F  
APALACHICOLA CLEAR 67 64 90 S6 29.94F  
 
STATION/POSITION SKY/WX TEMP WIND PRES WAVE SWELL
 
AIR SEA DIR/SP/G HT/PER HT/PER  
(F) (DEG/KT/KT) (MB) (FT/S) (FT/S)  
30.1N 87.6W 71 71 160/ 14/ 16 1012.4F 4/ 6 2/17  
29.2N 88.2W 73 73 150/ 16/ 21 1011.9F 5/ 6  
28.8N 86.0W 72 72 1013.5F 2/ 5  
PANAMA CITY BEAC 71 73 170/ 8/ 10 1013.9S  
TOWER C 70 160/ 9/ 9 1014.4F  
28.5N 84.5W 71 72 140/ 8/ 10 1014.1F 1/ 3  
 

 
FLZ011-016>038-118-127-128-134-139-239-300900-  
NORTH FLORIDA  
 
CITY SKY/WX TMP DP RH WIND PRES REMARKS
 
MARIANNA CLEAR 60 57 89 CALM 29.94S  
TALLAHASSEE CLEAR 58 55 90 CALM 29.94F  
PERRY CLEAR 57 56 97 CALM 29.97S FOG  
CROSS CITY CLEAR 55 54 94 CALM 29.98F  
LAKE CITY FAIR 55 54 94 CALM 29.98F  
GAINESVILLE CLEAR 57 53 86 CALM 29.98F  
WILLISTON CLEAR 59 55 88 MISG 29.98F  
PALATKA FAIR 59 59 100 CALM 29.99F  
MAYPORT NAS CLOUDY 69 63 81 SE5 29.98F  
JACKSONVILLE CLOUDY 67 62 84 SE6 29.97F  
JAX NAS MOCLDY 72 64 76 S5 29.99F  
FERNANDINA BEA CLOUDY 72 64 78 CALM 29.97F  
ST AUGUSTINE CLEAR 66 62 87 CALM 30.00F  
 
STATION/POSITION SKY/WX TEMP WIND PRES WAVE SWELL
 
AIR SEA DIR/SP/G HT/PER HT/PER  
(F) (DEG/KT/KT) (MB) (FT/S) (FT/S)  
SHELL POINT NOT AVBL  
KEATON BEACH 63 60/ 3/ 3 1014.2F  
CEDAR KEY 72 120/ 11/ 11 1015.7F  
FERNANDINA 71 71 140/ 3/ 5 1016.0F  
30.7N 81.3W 68 N/A 2/11 2/11  
MAYPORT 69 68 140/ 3/ 4 1015.6F  
31.4N 80.9W 66 65 210/ 2/ 4 1015.9F 2/10 2/10  
ST AUGUSTINE 68 69 200/ 3/ 3 1016.4F  
 

 
FLZ040-043>046-052-053-057-058-063-144-300900-  
INTERIOR CENTRAL FLORIDA  
 
CITY SKY/WX TMP DP RH WIND PRES REMARKS
 
OCALA CLEAR 57 52 82 CALM 29.99F  
THE VILLAGES N/A 63 61 94 CALM 29.89F  
LEESBURG CLEAR 66 61 84 CALM 29.99F  
SANFORD CLEAR 69 61 75 S5 29.99F  
ORLANDO EXEC CLEAR 67 59 75 S3 29.99F  
ORLANDO INTL CLEAR 67 60 78 S3 30.00S  
KISSIMMEE CLEAR 68 62 81 S3 30.00F  
WINTER HAVEN CLEAR 66 62 87 SW3 30.00F  
LAKELAND CLEAR 63 61 94 CALM 30.00S  
BARTOW FAIR 63 63 100 CALM 30.00F  
OKEECHOBEE PTCLDY N/A N/A N/A CALM 30.01S  
 

 
FLZ041-047-054-059-064-141-147-300900-  
EAST CENTRAL FLORIDA  
 
CITY SKY/WX TMP DP RH WIND PRES REMARKS
 
DAYTONA BEACH PTCLDY 71 60 70 S6 30.01S  
DELAND CLEAR 63 59 88 SE3 29.99S  
JFK SPACE CTR CLEAR 67 65 95 CALM 29.99S  
CAPE CANAVERAL CLEAR 66 62 89 S5 29.99F  
PATRICK AFB CLEAR 70 65 86 S7 30.00S  
MELBOURNE PTCLDY 69 64 84 S5 30.01F  
VERO BEACH CLEAR 67 63 87 S5 30.01F  
FT PIERCE CLEAR 62 61 96 CALM 30.00F  
STUART CLEAR 70 64 83 CALM 30.02F  
 
STATION/POSITION SKY/WX TEMP WIND PRES WAVE SWELL
 
AIR SEA DIR/SP/G HT/PER HT/PER  
(F) (DEG/KT/KT) (MB) (FT/S) (FT/S)  
TRIDENT PIER 71 74 180/ 5/ 6 1017.0F  
28.4N 80.5W 73 N/A 2/10 2/11  
27.5N 80.2W 75 N/A 3/10 2/11  
 

 
FLZ050-056-061-142-242-148-248-149-249-151-251-155-255-  
160-260-300900-  
WEST CENTRAL FLORIDA  
 
CITY SKY/WX TMP DP RH WIND PRES REMARKS
 
CRYSTAL RIVER FAIR 59 55 88 CALM 29.98F  
INVERNESS FAIR 59 59 100 CALM 29.99F  
BROOKSVILLE CLEAR 61 61 100 E3 29.99F  
CLEARWATER AIR FAIR 64 64 100 CALM 29.98F  
ST PETE CLEARW CLEAR 66 64 93 S3 29.98F  
TAMPA INTL PTCLDY 71 65 81 SE3 29.99F  
TAMPA EXEC PTCLDY 61 59 94 CALM 29.99F FOG  
PLANT CITY CLEAR 64 64 100 CALM 30.01F  
MACDILL AFB CLEAR 62 61 96 CALM 29.99F  
PETER O KNIGHT PTCLDY 70 68 94 CALM 29.99F  
ST PETERSBURG CLEAR 71 66 84 CALM 29.97F  
SARASOTA CLEAR 64 61 90 CALM 29.98F  
VENICE N/A 66 64 94 CALM 30.01S  
 
STATION/POSITION SKY/WX TEMP WIND PRES WAVE SWELL
 
AIR SEA DIR/SP/G HT/PER HT/PER  
(F) (DEG/KT/KT) (MB) (FT/S) (FT/S)  
27.3N 84.2W 73 N/A 2/ 6  
CLEARWATER BEACH 71 73 130/ 3/ 5 1015.4F  
MIDDLE TAMPA BAY 70 160/ 4/ 4 1015.7F  
VENICE 70 73 130/ 1/ 1 1015.6F  
 

 
FLZ066-069-070-075>078-162-262-165-265-300900-  
SOUTHWEST FLORIDA AND KEYS  
 
CITY SKY/WX TMP DP RH WIND PRES REMARKS
 
PUNTA GORDA CLEAR 63 59 87 CALM 30.02S  
FT MYERS CLEAR 70 66 87 CALM 30.00S  
SOUTHWEST INTL CLEAR 66 62 87 CALM 30.01R  
NAPLES CLEAR 66 66 100 E3 30.00S  
IMMOKALEE MOCLDY 63 61 94 CALM 30.01R  
MARATHON CLEAR 76 65 68 E5 29.98F  
KEY WEST NAS MOCLDY 74 64 71 E13 29.98F  
KEY WEST INTL MOCLDY 76 65 68 SE14 29.99F  
 
STATION/POSITION SKY/WX TEMP WIND PRES WAVE SWELL
 
AIR SEA DIR/SP/G HT/PER HT/PER  
(F) (DEG/KT/KT) (MB) (FT/S) (FT/S)  
NAPLES 75 1015.9F  
26.0N 85.6W 76 120/ 16/ 19 1013.1F 3/ 6  
DRY TORTUGAS 76 120/ 13/ 14 1015.3S  
SAND KEY 76 140/ 16/ 19 1015.7F  
LONG KEY 76 78 140/ 8/ 10 1016.1F  
 

 
FLZ067-068-071>074-168-172>174-300900-  
SOUTHEAST FLORIDA  
 
CITY SKY/WX TMP DP RH WIND PRES REMARKS
 
W PALM BEACH PTCLDY 67 63 87 CALM 30.01S  
FT LAUDER-EXEC PTCLDY 70 62 76 NW3 30.00F  
FT LAUDERDALE PTCLDY 73 61 65 SE7 30.00S  
POMPANO BEACH MOCLDY 75 65 70 SE7 30.00F  
PEMBROKE PINES CLEAR 68 63 84 CALM 30.02S  
OPA LOCKA CLEAR 69 62 78 CALM 30.01F  
MIAMI PTCLDY 73 62 68 E3 30.00F  
WEST KENDALL CLEAR 66 62 87 CALM 30.00F  
HOMESTEAD PTCLDY 72 65 80 E5 29.99F  
 
STATION/POSITION SKY/WX TEMP WIND PRES WAVE SWELL
 
AIR SEA DIR/SP/G HT/PER HT/PER  
(F) (DEG/KT/KT) (MB) (FT/S) (FT/S)  
PORT EVERGLADES 76 120/ 7/ 10 1015.9F  
LAKE WORTH 150/ 8/ 10 N/A  
FOWEY ROCKS 75 76 100/ 13/ 14 1016.4F  
SETTLEMENT POINT 72 130/ 7/ 8 1016.4F  
 

 
 
 
 
CLICK HERE TO GO TO PREVIOUS BULLETINS.

The Nexlab FL Page Main Text Page